Time,TemperatureF,DewpointF,PressureIn,WindDirection,WindDirectionDegrees,WindSpeedMPH,WindSpeedGustMPH,Humidity,HourlyPrecipIn,Conditions,Clouds,dailyrainin,SolarRadiationWatts/m^2,SoftwareType,DateUTC
2013-08-19 00:01:00,56.0,54.0,-100.00,SE,133,0.0,3.0,93,0.00,,,0.00,0.000000,,2013-08-19 07:01:00,
2013-08-19 00:11:00,56.0,54.0,-100.00,SE,133,0.0,3.0,93,0.00,,,0.00,0.000000,,2013-08-19 07:11:00,
2013-08-19 00:21:00,56.0,54.0,-100.00,SE,133,0.0,3.0,93,0.00,,,0.00,0.000000,,2013-08-19 07:21:00,
2013-08-19 00:52:00,56.0,54.0,-100.00,SSE,151,0.0,1.0,93,0.00,,,0.00,0.000000,,2013-08-19 07:52:00,
2013-08-19 01:01:00,56.0,54.0,-100.00,SSE,151,0.0,1.0,93,0.00,,,0.00,0.000000,,2013-08-19 08:01:00,
2013-08-19 01:11:00,56.0,54.0,-100.00,SSE,151,0.0,1.0,93,0.00,,,0.00,0.000000,,2013-08-19 08:11:00,
2013-08-19 01:21:00,56.0,54.0,-100.00,SSE,151,0.0,1.0,93,0.00,,,0.00,0.000000,,2013-08-19 08:21:00,
2013-08-19 01:52:00,56.0,54.0,-100.00,SE,134,0.0,3.0,92,0.00,,,0.00,0.000000,,2013-08-19 08:52:00,
2013-08-19 02:01:00,56.0,54.0,-100.00,SE,134,0.0,3.0,92,0.00,,,0.00,0.000000,,2013-08-19 09:01:00,
2013-08-19 02:11:00,56.0,54.0,-100.00,SE,134,0.0,3.0,92,0.00,,,0.00,0.000000,,2013-08-19 09:11:00,
2013-08-19 02:21:00,56.0,54.0,-100.00,SE,134,0.0,3.0,92,0.00,,,0.00,0.000000,,2013-08-19 09:21:00,
2013-08-19 02:53:00,55.0,52.0,-100.00,SE,139,0.0,3.0,91,0.00,,,0.00,0.000000,,2013-08-19 09:53:00,
2013-08-19 03:03:00,55.0,52.0,-100.00,SE,139,0.0,3.0,91,0.00,,,0.00,0.000000,,2013-08-19 10:03:00,
2013-08-19 03:12:00,55.0,52.0,-100.00,SE,139,0.0,3.0,91,0.00,,,0.00,0.000000,,2013-08-19 10:12:00,
2013-08-19 03:22:00,55.0,52.0,-100.00,SE,139,0.0,3.0,91,0.00,,,0.00,0.000000,,2013-08-19 10:22:00,
2013-08-19 03:52:00,55.0,52.0,-100.00,SSE,162,0.0,2.0,91,0.00,,,0.00,0.000000,,2013-08-19 10:52:00,
2013-08-19 04:02:00,55.0,52.0,-100.00,SSE,162,0.0,2.0,91,0.00,,,0.00,0.000000,,2013-08-19 11:02:00,
2013-08-19 04:12:00,55.0,52.0,-100.00,SSE,162,0.0,2.0,91,0.00,,,0.00,0.000000,,2013-08-19 11:12:00,
2013-08-19 04:21:00,55.0,52.0,-100.00,SSE,162,0.0,2.0,91,0.00,,,0.00,0.000000,,2013-08-19 11:21:00,
2013-08-19 04:52:00,54.0,51.0,-100.00,South,176,0.0,1.0,89,0.00,,,0.00,0.000000,,2013-08-19 11:52:00,
2013-08-19 05:01:00,54.0,51.0,-100.00,South,176,0.0,1.0,89,0.00,,,0.00,0.000000,,2013-08-19 12:01:00,
2013-08-19 05:11:00,54.0,51.0,-100.00,South,176,0.0,1.0,89,0.00,,,0.00,0.000000,,2013-08-19 12:11:00,
2013-08-19 05:21:00,54.0,51.0,-100.00,South,176,0.0,1.0,89,0.00,,,0.00,0.000000,,2013-08-19 12:21:00,
2013-08-19 05:52:00,55.0,52.0,-100.00,South,176,0.0,1.0,90,0.00,,,0.00,0.000000,,2013-08-19 12:52:00,
2013-08-19 06:03:00,55.0,52.0,-100.00,South,176,0.0,1.0,90,0.00,,,0.00,0.000000,,2013-08-19 13:03:00,
2013-08-19 06:13:00,55.0,52.0,-100.00,South,176,0.0,1.0,90,0.00,,,0.00,0.000000,,2013-08-19 13:13:00,
2013-08-19 06:22:00,55.0,52.0,-100.00,South,176,0.0,1.0,90,0.00,,,0.00,0.000000,,2013-08-19 13:22:00,
2013-08-19 06:52:00,55.0,52.0,-100.00,South,171,0.0,1.0,90,0.00,,,0.00,1.000000,,2013-08-19 13:52:00,
2013-08-19 07:02:00,55.0,52.0,-100.00,South,171,0.0,1.0,90,0.00,,,0.00,1.000000,,2013-08-19 14:02:00,
2013-08-19 07:11:00,55.0,52.0,-100.00,South,171,0.0,1.0,90,0.00,,,0.00,1.000000,,2013-08-19 14:11:00,
2013-08-19 07:21:00,55.0,52.0,-100.00,South,171,0.0,1.0,90,0.00,,,0.00,1.000000,,2013-08-19 14:21:00,
2013-08-19 07:52:00,55.0,52.0,-100.00,South,174,0.0,0.0,88,0.00,,,0.00,16.000000,,2013-08-19 14:52:00,
2013-08-19 08:01:00,55.0,52.0,-100.00,South,174,0.0,0.0,88,0.00,,,0.00,16.000000,,2013-08-19 15:01:00,
2013-08-19 08:11:00,55.0,52.0,-100.00,South,174,0.0,0.0,88,0.00,,,0.00,16.000000,,2013-08-19 15:11:00,
2013-08-19 08:22:00,55.0,52.0,-100.00,South,174,0.0,0.0,88,0.00,,,0.00,16.000000,,2013-08-19 15:22:00,
2013-08-19 08:54:00,56.0,55.0,-100.00,South,174,0.0,1.0,97,0.01,,,0.01,57.000000,,2013-08-19 15:54:00,
2013-08-19 09:05:00,56.0,55.0,-100.00,South,174,0.0,1.0,97,0.01,,,0.01,57.000000,,2013-08-19 16:05:00,
2013-08-19 09:13:00,56.0,55.0,-100.00,South,174,0.0,1.0,97,0.01,,,0.01,57.000000,,2013-08-19 16:13:00,
2013-08-19 09:23:00,56.0,55.0,-100.00,South,174,0.0,1.0,97,0.01,,,0.01,57.000000,,2013-08-19 16:23:00,
2013-08-19 09:28:00,59.0,-99.9,-100.00,SSW,200,1.0,3.0,92,0.01,,,0.02,130.000000,,2013-08-19 16:28:00,
2013-08-19 10:03:00,59.0,57.0,-100.00,SSW,200,1.0,3.0,92,0.01,,,0.02,130.000000,,2013-08-19 17:03:00,
2013-08-19 10:12:00,59.0,57.0,-100.00,SSW,200,1.0,3.0,92,0.01,,,0.02,130.000000,,2013-08-19 17:12:00,
2013-08-19 10:28:00,59.0,56.0,-100.00,SSW,212,2.0,5.0,90,0.00,,,0.02,180.000000,,2013-08-19 17:28:00,
2013-08-19 10:57:00,59.0,56.0,-100.00,SSW,212,2.0,5.0,90,0.00,,,0.02,180.000000,,2013-08-19 17:57:00,
2013-08-19 11:05:00,59.0,56.0,-100.00,SSW,212,2.0,5.0,90,0.00,,,0.02,180.000000,,2013-08-19 18:05:00,
2013-08-19 11:19:00,59.0,56.0,-100.00,SSW,212,2.0,5.0,90,0.00,,,0.02,180.000000,,2013-08-19 18:19:00,
2013-08-19 11:28:00,-999.0,-99.9,-100.00,SW,229,2.0,7.0,77,0.00,,,0.02,545.000000,,2013-08-19 18:28:00,
2013-08-19 11:50:00,-999.0,-99.9,-100.00,SW,229,2.0,7.0,77,0.00,,,0.02,545.000000,,2013-08-19 18:50:00,
2013-08-19 12:00:00,-999.0,-99.9,-100.00,SW,229,2.0,7.0,77,0.00,,,0.02,545.000000,,2013-08-19 19:00:00,
2013-08-19 12:07:00,65.0,58.0,-100.00,SW,229,2.0,7.0,77,0.00,,,0.02,545.000000,,2013-08-19 19:07:00,
2013-08-19 12:16:00,65.0,58.0,-100.00,SW,229,2.0,7.0,77,0.00,,,0.02,545.000000,,2013-08-19 19:16:00,
2013-08-19 12:28:00,69.0,56.0,-100.00,SW,232,3.0,9.0,64,0.00,,,0.02,760.000000,,2013-08-19 19:28:00,
2013-08-19 12:59:00,69.0,56.0,-100.00,SW,232,3.0,9.0,64,0.00,,,0.02,760.000000,,2013-08-19 19:59:00,
2013-08-19 13:08:00,69.0,56.0,-100.00,SW,232,3.0,9.0,64,0.00,,,0.02,760.000000,,2013-08-19 20:08:00,
2013-08-19 13:20:00,69.0,56.0,-100.00,SW,232,3.0,9.0,64,0.00,,,0.02,760.000000,,2013-08-19 20:20:00,
2013-08-19 14:00:00,-999.0,-99.9,-100.00,WSW,243,1.0,8.0,-999,-99.99,,,-99.99,324.000000,,2013-08-19 21:00:00,
2013-08-19 14:08:00,66.0,57.0,-100.00,WSW,243,1.0,8.0,72,0.00,,,0.02,324.000000,,2013-08-19 21:08:00,
2013-08-19 14:16:00,66.0,57.0,-100.00,WSW,243,1.0,8.0,72,0.00,,,0.02,324.000000,,2013-08-19 21:16:00,
2013-08-19 14:24:00,66.0,57.0,-100.00,WSW,243,1.0,8.0,72,0.00,,,0.02,324.000000,,2013-08-19 21:24:00,
2013-08-19 14:55:00,68.0,55.0,-100.00,SW,229,2.0,7.0,63,0.00,,,0.02,477.000000,,2013-08-19 21:55:00,
2013-08-19 15:06:00,68.0,55.0,-100.00,SW,229,2.0,7.0,63,0.00,,,0.02,477.000000,,2013-08-19 22:06:00,
2013-08-19 15:25:00,68.0,55.0,-100.00,SW,229,2.0,7.0,63,0.00,,,0.02,477.000000,,2013-08-19 22:25:00,
2013-08-19 15:55:00,66.0,54.0,-100.00,WSW,238,4.0,9.0,66,0.00,,,0.02,257.000000,,2013-08-19 22:55:00,
2013-08-19 16:05:00,66.0,54.0,-100.00,WSW,238,4.0,9.0,66,0.00,,,0.02,257.000000,,2013-08-19 23:05:00,
2013-08-19 16:15:00,66.0,54.0,-100.00,WSW,238,4.0,9.0,66,0.00,,,0.02,257.000000,,2013-08-19 23:15:00,
2013-08-19 16:25:00,66.0,54.0,-100.00,WSW,238,4.0,9.0,66,0.00,,,0.02,257.000000,,2013-08-19 23:25:00,
2013-08-19 16:55:00,63.0,57.0,-100.00,SSW,196,1.0,10.0,80,0.00,,,0.02,185.000000,,2013-08-19 23:55:00,
2013-08-19 17:02:00,63.0,57.0,-100.00,SSW,196,1.0,10.0,80,0.00,,,0.02,185.000000,,2013-08-20 00:02:00,
2013-08-19 17:11:00,63.0,57.0,-100.00,SSW,196,1.0,10.0,80,0.00,,,0.02,185.000000,,2013-08-20 00:11:00,
2013-08-19 17:23:00,63.0,57.0,-100.00,SSW,196,1.0,10.0,80,0.00,,,0.02,185.000000,,2013-08-20 00:23:00,
2013-08-19 17:52:00,62.0,54.0,-100.00,SW,216,3.0,5.0,76,0.00,,,0.02,124.000000,,2013-08-20 00:52:00,
2013-08-19 18:03:00,62.0,54.0,-100.00,SW,216,3.0,5.0,76,0.00,,,0.02,124.000000,,2013-08-20 01:03:00,
2013-08-19 18:11:00,62.0,54.0,-100.00,SW,216,3.0,5.0,76,0.00,,,0.02,124.000000,,2013-08-20 01:11:00,
2013-08-19 18:22:00,62.0,54.0,-100.00,SW,216,3.0,5.0,76,0.00,,,0.02,124.000000,,2013-08-20 01:22:00,
2013-08-19 18:52:00,61.0,55.0,-100.00,SSE,163,2.0,6.0,80,0.00,,,0.02,106.000000,,2013-08-20 01:52:00,
2013-08-19 19:02:00,61.0,55.0,-100.00,SSE,163,2.0,6.0,80,0.00,,,0.02,106.000000,,2013-08-20 02:02:00,
2013-08-19 19:11:00,61.0,55.0,-100.00,SSE,163,2.0,6.0,80,0.00,,,0.02,106.000000,,2013-08-20 02:11:00,
2013-08-19 19:21:00,61.0,55.0,-100.00,SSE,163,2.0,6.0,80,0.00,,,0.02,106.000000,,2013-08-20 02:21:00,
2013-08-19 19:52:00,59.0,54.0,-100.00,South,177,3.0,7.0,83,0.00,,,0.02,50.000000,,2013-08-20 02:52:00,
2013-08-19 20:02:00,59.0,54.0,-100.00,South,177,3.0,7.0,83,0.00,,,0.02,50.000000,,2013-08-20 03:02:00,
2013-08-19 20:11:00,59.0,54.0,-100.00,South,177,3.0,7.0,83,0.00,,,0.02,50.000000,,2013-08-20 03:11:00,
2013-08-19 20:22:00,59.0,54.0,-100.00,South,177,3.0,7.0,83,0.00,,,0.02,50.000000,,2013-08-20 03:22:00,
2013-08-19 20:54:00,57.0,53.0,-100.00,SE,135,2.0,5.0,85,0.00,,,0.02,21.000000,,2013-08-20 03:54:00,
2013-08-19 21:03:00,57.0,53.0,-100.00,SE,135,2.0,5.0,85,0.00,,,0.02,21.000000,,2013-08-20 04:03:00,
2013-08-19 21:13:00,57.0,53.0,-100.00,SE,135,2.0,5.0,85,0.00,,,0.02,21.000000,,2013-08-20 04:13:00,
2013-08-19 21:23:00,57.0,53.0,-100.00,SE,135,2.0,5.0,85,0.00,,,0.02,21.000000,,2013-08-20 04:23:00,
2013-08-19 21:53:00,56.0,53.0,-100.00,SSW,194,1.0,5.0,90,0.00,,,0.02,0.000000,,2013-08-20 04:53:00,
2013-08-19 22:02:00,56.0,53.0,-100.00,SSW,194,1.0,5.0,90,0.00,,,0.02,0.000000,,2013-08-20 05:02:00,
2013-08-19 22:12:00,56.0,53.0,-100.00,SSW,194,1.0,5.0,90,0.00,,,0.02,0.000000,,2013-08-20 05:12:00,
2013-08-19 22:21:00,56.0,53.0,-100.00,SSW,194,1.0,5.0,90,0.00,,,0.02,0.000000,,2013-08-20 05:21:00,
2013-08-19 22:52:00,54.0,49.0,-100.00,SSW,202,1.0,4.0,83,0.00,,,0.02,0.000000,,2013-08-20 05:52:00,
2013-08-19 23:01:00,54.0,49.0,-100.00,SSW,202,1.0,4.0,83,0.00,,,0.02,0.000000,,2013-08-20 06:01:00,
2013-08-19 23:11:00,54.0,49.0,-100.00,SSW,202,1.0,4.0,83,0.00,,,0.02,0.000000,,2013-08-20 06:11:00,
2013-08-19 23:21:00,54.0,49.0,-100.00,SSW,202,1.0,4.0,83,0.00,,,0.02,0.000000,,2013-08-20 06:21:00,
2013-08-19 23:52:00,52.0,49.0,-100.00,SSE,149,1.0,4.0,91,0.00,,,0.02,0.000000,,2013-08-20 06:52:00,